Regional Weather Roundup
Issued by NWS

Home | Current Version | Previous Version | Graphics & Text | Print | Product List | Glossary On
Versions: 1 2 3 4 5 6 7 8 9 10 11 12 13 14 15 16 17 18 19 20 21 22 23 24 25 26 27 28 29 30 31 32 33 34 35 36 37 38 39 40 41 42 43 44 45 46 47 48 49 50
000
ASUS45 KCYS 070110
RWRWY

WYOMING REGIONAL WEATHER ROUNDUP
NATIONAL WEATHER SERVICE CHEYENNE WY
600 PM MST FRI MAR 06 2015

NOTE:  "FAIR" INDICATES FEW OR NO CLOUDS BELOW 12,000 FEET
WITH NO SIGNIFICANT WEATHER AND/OR OBSTRUCTIONS TO VISIBILITY.

WYZ001-070200-
YELLOWSTONE NATIONAL PARK

CITY           SKY/WX    TMP DP  RH WIND       PRES   REMARKS
LK YELLOWSTONE   N/A     34  14  43 W7        30.36R WCI  28
W YELLOWSTONE  NOT AVBL

$$
WYZ002>013-054>058-071-098>099-070200-
NORTHERN WYOMING

CITY           SKY/WX    TMP DP  RH WIND       PRES   REMARKS
JACKSON        CLEAR     43  16  33 MISG      30.34F
CODY           FAIR      52  18  25 W6        30.21R
GREYBULL       FAIR      49  17  28 S5        30.20S
WORLAND        FAIR      41  24  51 S7        30.21R
SHERIDAN       FAIR      44  24  45 W8        30.14R
BUFFALO        FAIR      46  18  32 S5        30.18R
GILLETTE       FAIR      40  23  50 W8        30.14R WCI  34
HULETT         FAIR      45  21  39 SW6       30.12S
NEWCASTLE      FAIR      43  18  36 NW8       30.15R

$$
WYZ014>020-022>026-101>103-070200-
CENTRAL WYOMING

CITY           SKY/WX    TMP DP  RH WIND       PRES   REMARKS
BIG PINEY      FAIR      39  17  41 N13       30.34S WCI  31
PINEDALE       FAIR      32  21  64 NW15      30.33S WCI  22
DUBOIS         FAIR      36  18  48 NW9G21    30.30R WCI  29
LANDER         FAIR      36  26  67 N3        30.24R
RIVERTON       FAIR      31  22  69 NE6       30.25S WCI  25
CASPER         FAIR      38  25  59 W15       30.23S WCI  29
DOUGLAS        FAIR      40  24  53 NW8       30.21S WCI  34

$$
WYZ021-027>030-104>119-070200-
SOUTHERN WYOMING

CITY           SKY/WX    TMP DP  RH WIND       PRES   REMARKS
EVANSTON       FAIR      40  22  48 W9        30.38S WCI  34
KEMMERER       FAIR      37  19  48 NW14      30.37R WCI  29
FORT BRIDGER   FAIR      42  25  50 W12       30.39S
ROCK SPRINGS   FAIR      40  23  50 SW17      30.30S WCI  31
DIXON          FAIR      40  22  46 S6        30.38S
RAWLINS        FAIR      37  22  54 W10G20    30.30F WCI  30
SARATOGA       FAIR      32  23  69 S10       30.33F WCI  24
LARAMIE        FAIR      34  20  56 W12       30.26R WCI  25
CHEYENNE       FAIR      42  20  41 N8        30.24R
TORRINGTON     FAIR      45  20  36 W12       30.19S
PINE BLUFFS    FAIR      43  18  36 NW18      30.22R

$$



USA.gov is the U.S. government's official web portal to all federal, state and local government web resources and services.